GFSSE_700_temp_081.txt.gz
Temp
11 11 11 10 10 10 10 10 9 9 9 9 9 9 8 8 8 8 8 8 8 8 7 7 7 6 6 7 7 7 7 7 7 7 7 7 6 6 7 6 6 6 6
11 11 10 10 10 10 9 9 9 9 9 9 8 8 8 8 7 7 7 7 7 7 7 7 7 6 6 6 6 6 6 7 7 7 6 6 6 6 6 6 6 6 6
11 11 10 10 9 9 9 9 9 8 8 8 8 8 8 7 7 7 6 6 6 7 7 7 7 6 6 6 6 6 6 6 6 6 6 6 6 6 6 6 6 6 5
11 10 10 10 9 9 8 8 8 8 8 8 8 8 7 7 7 6 6 6 6 6 6 6 7 6 6 6 6 6 6 6 6 6 6 6 6 6 6 6 5 5 5
10 10 10 10 9 9 9 8 9 8 8 8 8 7 7 7 6 6 6 6 5 5 6 6 6 6 6 6 6 6 6 6 5 5 5 5 6 5 5 5 5 5 5
10 10 9 9 8 8 8 8 9 8 8 8 7 7 7 7 6 6 6 5 5 5 5 6 6 6 6 6 6 5 5 6 5 5 5 5 5 5 5 5 5 5 5
9 9 9 9 8 8 8 8 8 8 8 8 7 6 6 6 6 6 5 5 5 5 5 6 5 5 5 6 5 5 5 5 5 5 5 5 5 5 5 4 4 5 5
9 9 9 9 8 8 8 8 8 8 8 7 6 6 6 6 5 5 5 5 5 4 5 5 5 5 5 5 5 4 5 5 4 4 4 4 4 4 4 5 5 5 5
9 9 9 8 8 8 7 7 8 8 7 7 6 6 6 5 5 6 4 4 4 4 4 5 4 5 5 5 4 4 4 4 3 4 5 4 5 4 4 5 5 4 5
9 9 8 8 8 7 7 7 8 8 7 7 6 6 5 5 4 5 3 4 3 4 4 4 4 4 5 5 4 4 4 4 2 3 6 6 5 5 5 5 5 5 5
9 8 8 8 8 7 7 7 8 7 7 7 6 6 5 5 4 5 4 3 4 2 3 3 4 4 4 4 4 4 4 3 2 1 5 6 5 5 5 5 4 4 4
9 8 8 8 7 7 7 7 7 7 7 7 6 6 5 5 5 4 4 4 4 3 3 3 3 3 3 3 3 4 3 1 1 1 5 5 5 5 5 4 5 4 5
9 8 8 8 7 7 7 7 7 7 7 7 6 6 5 5 4 4 3 3 4 4 3 3 2 3 3 3 3 4 3 2 0 1 5 4 5 5 5 5 4 4 4
7 8 8 8 7 7 7 7 7 7 7 7 6 6 5 5 5 4 3 3 4 3 2 2 2 2 3 3 3 3 2 3 0 2 5 4 5 5 5 4 4 4 4
6 8 8 8 7 7 7 7 7 7 7 6 6 6 5 5 4 3 2 3 3 3 2 2 2 2 2 2 2 3 3 2 2 3 4 4 4 5 5 4 4 4 4
6 8 8 8 7 7 7 7 7 7 7 6 6 5 5 5 5 4 3 2 2 3 2 2 3 2 2 2 2 3 3 4 3 4 4 4 4 4 4 4 4 4 4
6 7 8 8 7 7 7 6 6 7 6 6 6 5 4 4 4 4 3 3 2 2 2 2 2 2 1 1 2 2 3 3 3 3 4 4 4 4 4 3 4 4 4
6 8 8 8 7 7 7 6 6 6 6 6 6 5 4 4 4 3 2 3 2 2 2 2 1 1 1 1 2 2 3 3 3 3 3 4 4 4 4 4 4 4 4
6 8 8 8 7 7 6 6 6 6 6 6 6 5 4 4 3 3 3 2 3 2 2 2 1 1 1 1 2 1 2 3 2 3 3 4 3 3 4 3 4 4 3
6 8 8 8 7 7 6 6 6 6 6 6 6 5 4 4 3 3 3 3 2 2 2 2 1 1 1 1 2 1 2 2 2 3 3 3 3 3 3 3 3 3 3
7 8 8 8 7 7 6 6 6 6 6 6 6 5 4 4 3 3 3 2 2 2 2 2 1 1 0 1 1 1 1 2 2 2 3 2 3 3 3 3 3 3 3
8 8 8 7 7 7 6 6 6 6 6 6 5 5 4 4 3 2 2 2 2 1 1 1 1 1 -0 1 2 2 1 1 1 2 2 2 3 3 3 2 2 2 3
8 8 8 8 7 7 6 6 6 6 6 6 5 5 4 3 3 2 2 1 1 2 1 1 1 1 0 1 1 2 1 2 2 2 2 2 2 2 2 3 2 2 2
8 8 8 8 8 7 6 6 6 6 6 5 5 4 4 3 3 2 2 2 1 2 2 2 1 1 1 0 1 1 1 -0 0 1 2 1 2 2 2 2 2 2 2
8 8 8 8 8 7 6 6 6 6 6 5 5 4 4 3 3 1 2 2 1 1 1 1 1 1 1 1 1 1 -1 -1 -1 0 0 1 1 2 1 1 1 1 1
7 8 8 8 8 7 7 6 6 6 6 6 5 4 3 3 2 1 1 1 1 1 1 1 1 1 1 1 1 1 1 0 -0 -1 -0 -1 0 1 1 1 1 1 -0

GFSSE_700_temp_084.txt.gz
Temp
12 12 12 11 11 10 10 10 10 10 9 9 9 9 9 8 8 8 8 8 8 8 7 7 7 7 7 7 6 6 6 6 7 7 6 6 6 6 6 6 6 6 6
12 12 11 11 11 10 10 10 9 9 9 9 9 9 8 8 8 7 7 7 7 7 7 7 7 7 6 6 6 6 6 6 6 6 6 6 6 6 6 6 6 6 6
12 12 11 11 11 11 10 9 9 9 9 9 8 8 8 8 8 7 7 7 7 7 7 7 6 6 6 6 6 6 6 6 6 6 6 6 6 6 6 6 6 6 6
11 11 11 11 10 10 10 9 9 8 8 8 8 8 8 8 7 7 7 6 6 6 6 6 6 6 6 6 6 6 6 5 5 5 6 5 6 6 6 6 6 5 5
11 11 11 11 10 10 10 9 9 9 9 9 8 8 8 7 7 7 7 6 6 6 6 6 6 6 6 6 5 6 5 5 6 6 6 5 6 5 6 6 6 5 5
10 10 10 10 10 10 10 9 9 9 9 9 8 7 7 7 7 7 6 6 5 5 6 6 6 5 5 5 6 5 5 6 5 5 5 5 5 5 5 5 5 5 5
10 10 10 10 9 9 9 9 8 8 8 8 8 8 7 7 7 6 6 5 5 5 5 6 5 5 5 5 5 5 5 5 5 5 5 5 5 5 5 5 5 5 5
9 9 9 9 9 9 9 8 8 8 8 8 8 7 7 6 6 6 6 5 5 5 5 5 5 5 5 5 5 5 4 4 5 5 4 5 5 5 5 4 4 5 5
9 9 9 9 9 9 8 8 8 8 8 8 7 7 7 6 5 5 5 4 5 4 5 4 4 5 5 5 5 4 4 5 5 4 4 4 4 4 5 5 5 5 5
9 9 9 9 9 8 8 8 8 8 8 8 7 6 6 6 5 5 5 4 4 2 4 4 4 4 4 4 4 4 4 4 4 4 3 4 4 4 4 5 5 5 5
9 9 9 9 8 8 8 8 8 8 8 8 7 7 6 6 5 5 5 4 3 3 4 3 4 4 3 4 4 4 4 4 4 4 4 5 4 5 4 5 5 5 5
9 9 9 8 8 8 8 8 8 8 8 8 7 7 6 5 5 5 5 4 4 4 2 3 3 3 4 3 3 3 3 3 4 3 4 5 4 5 5 5 5 5 5
8 9 9 8 8 8 8 8 8 8 8 8 7 6 6 6 5 5 4 4 4 4 4 2 3 3 3 4 3 3 2 2 3 2 5 4 5 5 5 5 5 5 5
6 8 9 8 8 8 7 8 7 7 8 7 7 6 6 6 5 5 4 3 4 4 4 4 3 2 3 3 3 2 3 1 2 2 4 4 5 4 5 5 5 5 5
6 6 7 8 8 8 7 7 7 7 7 7 7 6 6 6 5 5 4 4 4 3 4 3 3 2 2 3 2 2 3 1 1 1 5 5 5 5 5 5 5 5 5
7 6 6 8 8 8 7 7 7 7 7 7 7 6 6 6 5 4 4 4 4 3 3 2 3 2 3 2 2 2 2 0 3 4 4 4 5 5 4 5 5 5 5
7 6 6 7 8 8 7 7 7 7 7 7 6 6 5 5 5 4 4 4 4 3 3 3 2 2 2 1 2 1 2 3 3 4 4 4 5 5 5 5 5 4 4
7 7 6 7 8 8 7 7 7 7 7 6 6 6 5 5 5 4 4 4 3 3 2 2 2 2 2 1 1 1 1 3 2 4 5 4 4 4 5 5 5 4 4
7 7 6 8 8 8 7 8 7 6 6 6 6 6 5 4 4 4 3 3 3 2 2 2 1 2 2 1 0 1 2 3 3 3 4 4 4 4 4 4 4 4 4
8 7 7 7 8 8 8 7 7 6 6 6 6 6 6 4 4 4 3 3 3 2 2 2 2 2 1 2 1 1 2 3 3 3 4 4 4 4 4 4 4 4 4
8 7 7 7 8 8 8 7 7 6 6 6 6 6 6 5 4 3 3 3 3 3 2 2 2 1 1 1 1 0 2 2 3 2 3 4 4 4 3 3 3 3 3
7 7 6 8 8 8 8 7 7 6 6 6 6 6 5 5 4 3 3 3 2 2 2 2 2 1 2 1 0 1 1 0 2 2 3 3 4 4 4 3 4 4 3
7 6 6 8 8 8 7 7 7 6 6 6 6 6 5 4 3 3 3 3 3 2 2 2 2 1 1 0 0 1 2 1 2 2 2 2 3 3 2 3 3 3 3
7 6 6 8 8 7 7 7 7 6 6 5 6 5 5 4 3 3 3 3 2 1 2 1 2 1 0 0 0 1 0 1 2 2 2 2 2 2 2 2 2 2 3
7 7 7 8 8 8 8 7 7 6 6 6 6 6 4 4 3 3 3 2 1 1 1 1 1 1 1 0 0 0 1 -0 -0 1 1 1 1 2 2 2 2 2 2
7 7 7 7 7 8 8 7 7 6 6 6 6 5 4 3 3 3 2 2 1 2 1 1 1 1 1 0 0 0 -1 0 -0 -0 0 0 -0 1 1 1 1 2 1

GFSSE_700_temp_087.txt.gz
Temp
13 13 12 12 12 12 12 11 10 10 9 9 9 9 8 8 8 8 8 8 8 8 8 7 7 7 7 7 6 6 6 6 6 6 6 6 6 6 6 6 6 6 6
12 12 12 12 12 11 11 11 10 9 9 9 9 8 8 8 7 8 8 8 7 8 7 7 7 6 6 6 6 6 6 6 6 6 6 6 6 6 6 6 6 6 6
11 11 12 11 11 11 11 11 10 9 9 9 8 8 8 8 7 8 7 7 7 7 7 7 7 6 6 6 6 6 6 6 6 6 6 5 5 6 6 6 6 6 6
11 11 11 11 11 11 11 11 10 9 8 8 8 8 8 8 7 7 7 7 7 7 7 7 6 6 6 6 6 6 6 6 6 6 5 5 5 6 6 6 6 6 5
11 11 11 11 11 11 11 11 11 9 9 9 8 8 8 8 7 7 7 7 7 7 7 6 6 6 6 5 5 6 6 6 6 5 5 5 5 6 6 6 6 5 5
11 11 11 11 10 10 10 10 11 10 9 9 9 8 8 7 7 7 6 6 6 6 6 6 6 5 5 5 5 6 6 5 6 5 5 5 5 5 5 5 5 5 5
10 10 10 10 10 10 10 10 10 10 9 8 8 8 8 7 7 7 6 6 6 5 6 5 5 5 5 5 5 5 5 6 6 5 5 5 5 5 5 5 5 5 5
10 10 10 10 10 10 10 10 10 10 9 8 8 8 8 7 7 7 6 6 5 5 5 4 5 5 5 5 5 5 5 5 6 5 5 5 5 4 4 4 4 5 5
9 9 9 10 9 9 9 9 10 9 9 8 8 7 7 7 7 6 6 6 6 5 4 3 4 4 4 4 5 4 4 5 5 6 5 4 4 4 4 4 4 5 5
9 9 9 9 9 9 9 9 9 9 9 8 8 7 7 7 6 6 6 5 5 5 3 4 4 3 4 4 4 4 4 5 4 4 4 4 4 4 4 4 5 5 5
9 9 9 9 9 9 8 8 9 9 8 8 8 7 7 6 6 6 5 5 5 5 4 4 4 3 3 4 3 4 4 4 4 4 3 3 4 4 4 4 5 5 5
8 9 9 9 8 8 8 8 8 9 8 8 8 8 7 7 6 5 5 5 4 4 4 3 4 3 3 4 3 3 4 4 4 4 3 4 4 4 4 5 5 5 5
8 9 9 8 8 8 8 8 8 8 8 8 8 8 8 7 6 5 5 4 4 4 4 4 3 3 3 3 3 3 3 4 4 4 4 4 5 5 5 5 5 5 5
8 7 9 8 8 8 8 8 8 8 8 7 7 7 8 7 6 5 5 4 4 4 4 4 3 2 3 2 3 3 3 4 4 4 5 5 5 5 5 5 5 5 5
7 7 8 8 8 8 8 8 8 8 8 7 7 7 7 7 6 6 5 4 4 4 4 4 4 3 3 3 2 3 3 3 4 4 5 5 5 5 5 5 5 5 5
7 6 6 7 7 7 7 8 7 8 7 7 7 7 7 7 6 5 5 5 4 4 3 3 3 3 3 2 2 2 3 3 4 4 5 4 5 5 5 5 5 5 5
7 6 6 6 6 7 7 7 7 7 7 7 7 7 7 7 6 5 5 5 4 3 3 3 3 3 3 2 3 2 2 3 3 4 5 4 5 5 5 5 5 5 5
7 7 6 6 6 7 7 7 7 7 7 7 6 6 6 6 6 5 5 4 4 3 3 2 2 2 3 1 2 2 1 2 3 4 4 4 4 4 4 4 5 5 5
7 7 6 7 7 7 7 7 7 7 7 6 6 6 6 6 5 5 4 4 4 3 3 2 2 2 2 2 2 1 1 2 3 3 4 3 4 4 4 4 4 4 5
6 7 6 7 7 6 6 7 7 7 7 6 6 6 6 6 5 5 4 3 3 3 3 3 2 2 2 2 2 1 1 0 3 3 3 3 4 4 4 4 4 4 4
6 7 7 7 7 7 7 7 7 7 7 6 6 6 6 6 5 4 4 3 3 3 2 2 2 2 2 2 1 1 1 1 1 3 3 3 4 4 4 4 4 4 4
7 7 7 7 7 7 7 7 7 7 7 6 6 5 5 5 5 4 3 3 3 3 3 3 2 2 2 1 1 1 1 0 1 2 3 4 3 4 4 4 4 4 3
7 7 7 7 7 7 7 7 7 7 7 6 6 5 5 6 5 4 3 3 3 2 3 3 2 2 1 1 0 1 1 1 2 2 3 3 3 4 3 3 3 3 3
7 7 7 7 7 7 7 7 7 7 7 6 6 5 6 6 5 5 4 3 2 2 3 2 2 2 2 1 1 1 1 0 2 2 2 2 3 3 3 3 3 3 3
7 7 7 7 7 7 7 7 7 7 7 6 6 6 6 5 4 4 3 3 3 2 1 2 2 1 1 1 1 1 -0 -1 -1 0 1 2 2 2 3 3 2 2 2
7 7 7 7 7 7 7 7 7 7 7 6 6 5 6 5 4 3 3 3 2 1 1 1 2 1 2 1 0 0 -0 -1 -0 0 1 1 1 1 1 1 2 2 2

GFSSE_700_temp_090.txt.gz
Temp
13 12 12 12 12 12 12 11 11 10 10 9 9 9 8 8 8 7 8 8 8 8 8 8 7 7 7 7 6 6 6 6 6 6 6 7 7 6 6 6 6 6 6
12 12 12 12 11 12 12 11 11 10 9 9 9 8 8 8 8 7 7 7 7 7 8 7 7 7 6 6 6 6 6 6 6 6 6 6 6 6 6 6 6 6 6
11 11 11 11 11 11 12 11 11 11 9 9 8 8 8 8 8 7 7 7 7 7 7 7 7 7 6 6 6 6 6 6 6 6 6 6 6 5 5 5 6 6 6
11 11 11 11 11 11 11 11 11 11 10 9 8 8 8 7 8 8 7 7 6 6 7 7 6 6 6 6 6 6 6 6 6 6 6 6 5 5 5 5 6 5 5
11 11 11 11 11 11 11 11 11 11 10 9 9 8 7 7 7 7 7 7 6 6 6 6 6 6 6 6 6 6 6 6 6 6 6 5 5 5 5 6 6 5 5
11 11 11 10 11 10 10 11 11 10 10 10 9 9 8 7 7 7 7 7 6 6 6 6 5 5 5 5 5 6 6 6 6 6 6 5 5 5 5 5 5 5 5
10 10 10 10 10 10 10 10 10 10 10 10 10 9 8 8 7 7 7 6 6 6 6 5 5 4 5 5 5 5 6 6 6 5 5 5 5 5 5 5 5 5 5
10 10 10 10 10 10 10 10 10 10 10 10 9 9 8 8 7 7 7 6 6 6 6 5 5 3 3 4 4 5 6 5 5 5 5 5 5 5 5 5 5 5 5
10 10 9 9 9 9 9 9 10 10 10 10 9 9 8 7 7 7 7 7 6 6 5 5 5 4 3 3 5 5 5 5 5 5 5 4 5 4 4 4 4 4 5
10 10 9 9 9 9 9 9 9 10 10 10 9 9 8 8 7 7 6 6 6 5 5 4 4 3 3 3 4 5 5 5 5 5 4 4 4 4 4 4 4 5 5
8 9 9 9 9 9 8 8 9 9 9 10 9 8 8 7 7 6 6 6 5 4 4 4 4 3 3 3 3 4 4 4 4 4 4 4 4 4 4 5 5 5 5
9 8 9 9 8 8 8 8 8 8 9 9 8 8 8 8 7 6 6 5 5 4 4 4 4 4 2 3 3 3 4 4 4 4 4 4 4 4 4 4 5 5 5
8 8 8 8 8 8 8 8 8 8 8 9 8 8 8 8 7 6 6 5 5 5 4 4 4 4 2 3 3 3 4 4 3 4 4 4 4 4 4 5 5 5 5
8 8 8 8 8 8 7 7 7 7 8 8 8 8 8 7 7 6 6 5 5 4 4 3 3 4 2 2 3 3 4 4 4 4 3 4 4 4 5 5 5 5 5
8 7 7 8 9 8 7 7 7 7 8 8 7 8 7 7 7 6 6 5 5 4 4 3 3 2 2 1 3 2 3 4 4 4 3 4 4 4 5 5 5 5 5
7 7 7 7 7 6 7 7 7 7 7 8 7 7 7 7 7 6 6 5 5 4 4 3 3 3 2 2 3 2 3 3 3 3 3 4 4 4 5 5 5 5 5
6 6 7 7 6 6 6 6 7 7 7 7 7 7 7 6 6 6 6 6 5 4 4 3 3 3 2 2 2 2 2 2 3 3 3 5 4 5 5 5 5 5 5
6 6 6 6 6 6 6 6 7 7 7 7 7 7 6 6 6 6 6 5 5 4 3 3 3 3 3 2 2 2 2 2 2 3 3 4 4 4 4 4 4 5 5
6 6 6 6 6 7 6 6 5 6 7 7 7 7 6 6 6 6 5 5 5 4 4 3 3 3 3 2 2 2 2 2 2 2 3 4 4 4 4 4 4 4 4
6 6 6 6 6 6 5 5 5 6 7 7 7 7 6 6 6 6 6 5 4 4 3 3 3 2 2 2 2 1 2 2 2 2 3 3 3 4 4 4 4 4 4
6 6 6 6 6 6 6 6 6 6 7 7 7 6 6 6 5 6 6 5 4 4 3 3 2 2 2 2 2 1 2 2 1 2 2 3 3 4 4 4 4 4 4
6 6 6 6 6 6 6 6 6 6 6 6 6 7 6 6 5 6 6 5 4 3 3 3 2 2 2 2 2 2 2 1 1 1 2 3 3 3 4 4 4 4 4
6 6 6 6 6 7 6 6 6 6 6 6 6 7 6 5 5 6 5 4 3 3 3 3 2 2 2 2 2 2 2 2 1 1 2 3 3 3 3 4 4 4 3
6 6 6 6 7 7 7 6 6 7 7 7 6 6 6 5 5 6 5 4 3 3 3 2 2 3 2 2 2 1 1 2 1 1 3 3 3 3 3 3 3 3 3
6 6 7 7 7 7 7 6 6 7 7 6 6 6 6 5 6 5 5 5 4 3 2 2 2 2 2 2 2 1 1 1 0 1 1 2 3 3 3 2 2 2 2
6 6 7 7 7 7 6 6 7 7 7 7 6 6 6 5 6 5 5 4 4 3 2 2 1 2 2 2 1 1 1 1 1 1 1 2 2 2 2 2 2 2 2

GFSSE_700_temp_093.txt.gz
Temp
13 13 12 12 12 11 11 11 12 11 10 10 9 9 9 8 8 8 7 7 8 8 7 8 7 7 7 7 7 6 6 6 6 6 6 6 6 6 6 6 6 6 6
12 13 12 12 12 11 11 11 11 11 11 10 9 9 8 8 8 8 7 7 7 7 7 7 7 7 6 6 6 6 6 6 6 6 6 6 6 6 6 6 6 6 6
12 12 12 12 12 11 11 11 11 11 11 10 9 9 8 8 7 7 7 7 7 7 7 7 7 7 6 6 6 6 6 6 6 6 6 6 6 5 6 6 6 6 6
11 12 12 12 11 11 11 11 11 11 11 11 10 9 8 8 8 7 7 7 7 6 7 7 7 6 6 6 6 6 6 6 6 6 6 6 6 6 6 5 5 5 5
12 11 11 11 11 11 11 11 11 11 11 11 10 9 9 8 8 8 7 7 6 6 6 6 6 6 6 5 5 6 6 6 6 6 6 7 6 6 5 5 5 5 5
12 11 11 11 10 10 10 10 10 10 10 11 10 10 9 9 8 8 7 7 6 6 6 6 6 5 5 5 5 6 6 6 6 6 6 6 6 5 5 5 5 5 5
11 11 10 10 10 10 10 10 10 10 10 10 10 10 9 8 8 8 8 7 6 6 6 6 6 5 5 5 5 5 5 5 6 6 6 6 5 5 5 5 5 5 5
10 10 10 10 10 10 10 10 10 10 10 10 10 10 9 8 8 8 8 7 7 6 6 6 6 5 5 5 5 4 4 5 6 5 5 5 5 5 5 5 5 5 5
10 10 10 10 9 9 9 9 9 10 10 10 10 9 9 9 8 8 7 7 7 6 6 5 5 4 4 4 3 3 4 5 5 5 5 5 5 4 4 5 5 5 5
10 10 10 10 10 9 9 9 9 9 9 9 9 9 9 9 8 7 7 7 6 6 5 5 4 5 4 4 3 3 2 5 5 5 5 4 4 4 5 5 5 5 5
9 9 10 10 9 9 9 9 9 9 9 9 9 8 9 9 8 7 7 7 6 6 5 5 4 4 4 4 3 2 2 4 4 4 4 4 4 4 4 4 4 4 5
9 9 9 9 9 9 9 8 8 8 8 9 9 8 8 8 8 7 7 7 6 5 5 4 4 4 4 4 3 2 2 3 4 4 4 4 4 4 4 4 5 5 5
8 8 8 8 8 8 8 8 8 8 8 8 8 8 8 8 7 7 7 7 6 5 5 4 4 4 4 4 3 2 2 3 4 4 4 4 4 4 4 4 5 5 5
7 7 7 8 8 8 8 8 7 7 8 8 8 8 7 7 7 7 7 7 6 5 5 4 4 4 4 3 2 2 2 2 4 4 4 5 4 4 4 4 4 5 5
6 6 7 7 7 8 8 7 7 7 7 7 8 7 7 7 7 7 7 7 6 5 5 4 4 3 3 3 1 1 2 2 3 3 3 4 3 3 4 4 3 5 5
5 6 6 7 7 7 7 7 7 7 7 7 7 7 7 7 7 6 6 7 6 5 4 4 3 3 3 2 1 1 2 2 3 3 3 4 4 4 4 4 3 5 4
6 6 6 6 6 7 7 6 6 6 6 7 7 7 7 6 6 6 6 6 6 5 4 4 3 3 3 2 1 1 2 2 2 2 3 3 3 3 3 4 4 4 4
7 6 6 6 6 6 6 7 6 5 6 7 7 7 7 6 6 6 6 6 5 5 4 4 3 3 3 2 2 1 2 2 2 2 2 3 3 3 3 4 4 4 4
6 6 6 6 6 6 6 6 6 5 5 6 7 7 7 6 6 6 6 6 5 5 4 4 3 3 3 2 2 2 2 2 1 2 2 2 3 3 3 4 4 4 4
6 6 6 6 6 6 6 6 6 5 5 5 6 6 6 6 6 6 5 5 5 5 4 4 3 3 3 3 2 2 2 2 2 2 2 2 3 3 4 4 4 4 4
6 6 6 6 6 6 5 6 6 6 5 6 6 6 6 6 6 6 5 5 5 5 4 3 3 3 3 2 2 2 2 2 2 2 1 2 2 2 3 4 4 4 4
6 6 6 6 5 6 6 6 6 6 6 5 5 6 6 6 6 6 5 5 5 4 4 3 3 3 3 2 2 2 2 2 2 2 1 2 1 2 3 4 4 4 4
6 6 6 6 6 6 6 6 6 6 5 3 5 6 6 6 6 6 5 5 5 4 3 3 3 3 3 2 2 2 2 2 2 1 1 1 1 2 3 3 3 4 4
6 6 6 6 6 6 6 6 6 6 6 5 6 6 6 6 6 6 5 5 5 3 3 3 3 3 2 2 2 2 1 1 1 1 1 1 1 3 3 3 3 3 3
6 5 6 6 6 6 6 6 6 6 6 5 5 5 6 5 6 6 5 5 5 3 3 3 3 2 2 2 2 2 2 1 2 1 1 1 0 3 2 2 3 3 3
6 5 6 6 6 6 6 6 6 6 6 5 5 6 5 5 6 6 5 5 5 4 3 3 3 2 2 2 1 1 2 1 2 2 1 -0 -0 1 2 2 2 2 2

GFSSE_700_temp_096.txt.gz
Temp
13 13 13 13 12 12 12 11 11 11 11 11 11 10 9 8 8 8 8 8 7 7 7 7 7 7 7 6 6 6 6 6 6 6 6 6 6 7 6 6 6 6 6
13 13 13 12 12 12 12 11 11 11 11 11 11 10 9 8 8 8 8 8 7 7 7 7 7 7 6 6 6 6 6 6 6 6 6 6 6 6 6 6 6 6 6
13 12 12 12 12 12 12 11 11 11 11 10 11 10 10 9 8 8 8 8 7 7 7 7 7 7 6 6 6 6 6 6 6 6 6 6 6 6 6 6 6 5 6
12 12 12 12 12 11 11 11 11 11 10 10 10 10 10 9 9 8 8 8 8 7 7 7 7 7 6 6 6 6 5 6 6 6 6 6 6 6 6 6 5 5 5
12 11 11 11 11 11 11 11 11 10 10 10 10 10 10 10 9 9 8 8 7 7 7 6 6 6 6 6 6 5 6 6 6 6 6 6 6 6 6 5 5 5 5
11 11 11 11 11 11 11 10 10 10 10 10 10 10 10 9 9 8 8 8 7 7 7 6 6 6 6 6 6 5 6 6 6 6 6 6 6 5 6 5 5 5 5
11 11 11 11 10 10 10 10 10 10 10 10 10 10 9 9 9 8 8 8 7 7 7 6 6 6 6 6 6 5 5 5 5 6 6 6 5 5 5 5 5 5 5
10 10 10 10 10 10 10 10 10 10 10 10 10 10 9 9 8 8 8 7 7 7 7 6 6 5 5 5 5 5 5 5 5 5 5 5 5 5 5 5 5 5 5
10 10 10 10 10 9 9 9 9 9 9 9 10 9 9 9 8 8 7 7 7 6 6 6 5 5 5 5 4 4 4 4 5 4 5 5 5 4 4 5 5 5 5
9 9 9 9 9 9 9 9 9 9 9 9 9 9 9 9 8 8 7 7 6 6 5 5 5 5 5 4 4 3 3 3 4 4 4 5 4 4 4 5 5 5 5
9 9 9 9 9 9 9 9 9 9 9 9 9 9 9 9 8 8 7 6 6 6 5 5 5 5 5 4 3 4 3 3 3 3 4 4 4 4 4 4 4 4 4
8 8 9 9 9 9 8 8 8 8 8 9 9 9 9 8 8 8 7 7 6 6 5 5 5 5 5 4 4 4 3 2 2 3 4 4 4 4 4 4 4 4 4
7 8 8 8 8 8 8 8 8 8 8 8 8 8 8 8 8 7 7 7 7 6 5 5 5 5 4 4 3 3 3 3 2 3 4 4 4 4 4 4 4 4 4
6 7 7 7 7 7 8 8 8 8 8 8 8 8 8 8 7 7 7 7 7 6 5 5 5 4 4 3 3 3 3 3 2 3 3 4 4 4 4 4 4 4 4
6 6 6 6 7 7 7 7 7 7 7 7 7 8 8 7 7 7 7 7 7 5 5 5 5 4 4 3 3 3 3 2 2 2 3 3 4 3 3 3 4 4 4
6 6 6 6 6 6 6 7 7 7 7 7 7 7 7 7 7 7 7 6 6 6 5 5 4 4 3 3 3 4 3 2 2 3 3 3 3 3 3 3 4 4 3
6 6 6 6 5 5 6 6 6 6 6 6 6 7 7 7 7 6 6 6 6 6 5 5 4 4 4 3 3 3 2 1 2 2 2 3 3 3 3 3 3 3 3
5 6 6 6 6 6 5 6 6 5 5 5 5 6 6 7 7 6 6 6 6 6 5 5 4 4 4 3 3 3 1 1 1 2 2 2 3 3 3 3 4 3 3
5 5 5 5 6 6 6 6 6 5 5 5 5 6 6 6 6 6 6 6 5 5 5 4 4 4 3 3 2 2 2 1 1 2 2 2 2 2 3 3 3 3 4
4 5 5 5 5 6 6 6 5 5 5 5 5 6 6 6 6 6 6 5 5 5 5 5 4 3 3 2 2 2 2 1 1 1 2 2 2 2 2 3 3 3 4
4 5 5 5 5 5 6 6 6 6 6 6 6 5 6 6 6 6 6 5 5 5 5 4 4 3 2 2 2 2 2 2 2 2 1 1 2 2 2 2 3 3 4
4 5 5 5 5 5 5 6 5 5 6 6 6 6 5 5 5 6 5 5 5 5 5 4 4 3 2 2 2 2 2 2 2 2 2 2 1 2 2 2 3 3 3
4 4 5 5 5 5 5 5 5 5 5 5 5 5 4 5 5 5 5 5 5 5 5 4 4 3 3 2 2 2 2 2 2 2 2 2 1 1 2 2 3 3 3
4 4 5 5 6 6 5 5 5 6 5 5 5 5 3 2 4 5 5 5 5 5 5 4 3 3 2 2 2 2 2 2 2 1 2 2 2 1 1 2 3 3 3
3 4 5 5 6 6 6 6 6 5 5 5 5 4 2 3 5 5 5 5 5 5 5 4 3 2 2 2 2 2 2 2 2 1 1 2 1 1 1 1 3 3 3
4 5 5 5 6 6 6 6 6 6 6 6 5 5 3 5 4 4 5 5 5 5 5 4 3 3 2 2 2 2 2 2 2 2 1 1 1 1 0 1 2 2 2

GFSSE_700_temp_099.txt.gz
Temp
13 13 13 13 13 12 12 12 11 11 11 11 10 10 9 9 8 8 9 8 8 8 7 7 7 7 7 7 6 6 6 6 6 7 7 7 6 7 7 6 7 6 6
13 13 13 13 12 12 12 11 11 11 11 10 10 10 9 9 8 8 8 8 8 8 7 7 7 7 7 7 7 6 6 6 6 6 6 6 6 6 6 6 6 6 6
13 12 12 12 12 12 12 11 11 11 10 10 10 10 10 9 8 8 8 8 8 8 7 7 7 7 7 7 6 6 6 6 6 6 6 6 6 6 6 6 6 6 6
12 12 12 12 12 12 11 11 11 11 10 10 10 10 10 10 9 8 8 8 8 7 7 7 7 7 7 7 6 6 6 6 6 6 6 6 6 6 6 6 6 6 6
11 12 12 12 12 11 11 11 11 11 10 10 10 10 9 9 9 8 8 8 7 7 7 7 6 6 6 6 6 6 5 5 6 6 6 6 6 6 6 6 5 5 5
11 11 11 11 11 11 11 11 11 10 10 10 10 10 9 9 9 8 8 7 7 7 7 6 6 6 6 6 6 6 5 5 6 6 6 6 6 6 6 5 5 5 5
10 11 11 11 11 11 11 10 10 10 10 10 10 10 9 9 9 9 8 7 7 7 7 7 6 6 6 6 6 5 5 5 5 6 5 6 6 5 5 5 5 5 5
10 10 10 10 10 10 10 10 10 10 10 10 10 10 9 9 9 9 8 7 7 7 6 6 6 6 5 6 5 5 5 5 5 6 5 5 5 5 5 5 5 5 5
10 10 10 10 10 10 10 10 9 9 9 9 9 9 9 9 9 9 8 7 7 6 6 6 6 5 5 5 5 5 5 4 5 3 5 5 5 5 5 5 5 5 5
9 9 9 9 10 10 9 9 9 9 9 9 9 9 9 9 9 9 8 8 7 6 6 6 5 5 5 5 4 4 4 3 4 2 4 5 4 4 4 5 5 5 5
9 9 9 9 9 9 9 9 9 9 9 9 9 9 9 9 9 8 8 8 7 6 6 5 5 5 5 4 4 4 5 3 4 3 3 4 4 4 4 4 4 4 5
8 9 9 9 9 9 9 9 9 9 9 8 9 9 9 9 8 8 8 7 7 6 6 5 5 5 5 5 4 4 4 3 4 3 2 3 4 3 4 4 4 4 4
7 8 8 9 8 8 8 8 8 8 8 8 8 8 8 8 8 8 8 7 7 7 6 5 5 5 4 4 4 4 3 4 4 3 3 3 3 3 4 4 4 4 4
7 7 7 7 7 8 8 8 8 8 8 8 8 8 8 8 8 8 8 7 7 7 6 5 5 4 4 4 3 3 3 3 3 2 2 3 3 3 4 4 4 4 4
6 6 6 6 7 7 7 7 7 7 7 7 7 7 7 8 8 7 7 7 7 7 6 5 5 4 4 3 3 3 3 3 3 2 3 3 3 3 3 3 4 3 3
6 6 6 6 5 7 6 6 6 7 7 7 7 7 7 7 7 7 7 7 7 6 6 6 5 4 4 3 3 3 3 4 3 2 2 2 3 3 3 3 3 3 3
6 6 6 6 6 6 6 5 6 6 6 6 6 6 6 7 7 7 7 7 6 6 6 6 5 4 4 3 3 3 3 4 3 2 2 2 3 3 3 2 3 3 3
5 5 6 6 6 6 6 5 5 6 6 6 5 6 6 6 6 6 7 6 6 6 6 6 5 4 3 3 3 3 3 3 3 2 2 3 2 2 3 2 3 3 3
4 4 4 5 5 6 6 6 6 5 5 5 5 6 6 6 6 6 6 6 6 6 6 6 5 4 3 2 2 3 3 3 2 1 2 2 2 2 2 3 2 3 3
5 4 4 4 4 5 5 6 6 6 5 5 5 6 6 5 6 6 6 6 6 6 5 6 5 5 3 2 2 2 2 3 2 1 2 3 2 2 2 2 3 3 3
4 4 4 4 4 4 5 5 6 6 6 6 6 6 6 5 5 6 6 6 6 6 5 5 5 5 4 2 1 1 2 2 2 1 1 1 1 2 2 2 2 2 2
4 4 4 4 4 4 5 5 5 6 6 6 5 5 6 6 6 5 5 5 5 5 5 5 5 5 4 2 2 2 1 2 1 2 1 1 1 2 1 2 2 2 2
3 3 3 3 4 4 5 5 5 5 5 5 5 6 6 5 5 5 5 5 5 5 5 5 4 5 4 3 3 2 2 2 2 2 2 1 1 1 2 2 2 2 2
2 2 3 3 3 4 5 5 5 5 5 5 5 5 6 5 4 4 4 4 4 5 5 4 4 4 4 3 2 2 1 2 2 2 2 2 2 1 1 2 2 1 2
2 3 3 3 4 4 4 5 5 5 5 5 5 5 5 4 4 5 4 2 3 4 4 4 4 4 3 3 2 3 2 2 2 2 2 2 2 1 1 1 1 1 2
1 0 2 3 4 4 5 5 5 5 6 5 5 5 5 4 4 4 3 3 4 4 4 4 4 4 3 2 2 3 2 3 2 2 2 2 1 2 2 2 2 1 1

GFSSE_700_temp_102.txt.gz
Temp
13 14 13 12 13 12 12 12 11 11 11 10 10 9 9 9 9 9 8 8 8 8 8 7 7 7 7 7 7 7 7 7 7 7 7 7 6 7 7 7 7 6 6
13 13 13 12 12 12 12 11 11 11 10 10 10 9 9 8 8 8 8 8 8 8 7 7 7 7 7 7 7 7 7 7 6 6 6 6 6 7 6 6 6 6 6
13 13 12 12 12 12 12 11 11 11 10 10 10 9 9 8 8 8 8 8 8 8 7 7 7 7 7 7 7 7 7 7 6 6 6 6 6 6 6 6 6 6 6
12 12 12 12 12 12 12 11 11 11 10 10 10 10 10 9 8 8 8 8 8 7 7 7 7 7 7 7 7 6 6 6 6 6 6 6 6 6 6 6 6 6 6
11 12 12 11 12 12 12 11 11 11 11 10 10 10 10 9 9 8 8 8 7 7 7 7 7 7 7 6 6 6 6 6 6 6 5 6 6 6 6 6 6 6 6
11 11 12 11 11 12 11 11 11 11 10 10 10 10 9 9 9 8 8 7 7 7 7 7 6 6 6 6 6 6 6 6 5 6 6 6 6 6 6 5 6 6 6
11 11 11 11 11 11 11 11 11 10 10 10 10 10 9 9 9 9 8 7 7 7 7 6 6 6 6 6 6 6 6 5 5 6 6 6 5 6 5 5 5 6 5
10 11 11 11 11 10 10 10 10 10 10 10 10 9 9 9 9 9 8 8 7 7 7 6 6 6 5 6 6 5 5 5 5 5 5 5 5 5 5 5 5 5 5
10 10 10 10 10 10 10 10 10 10 10 9 9 9 9 9 9 9 8 8 7 7 7 6 6 5 5 5 5 5 5 5 5 5 5 5 5 5 5 5 5 5 5
10 10 10 10 10 10 10 10 10 10 9 9 9 9 9 9 9 8 8 8 8 7 7 6 6 5 5 5 5 5 5 4 5 4 4 4 3 4 5 5 4 5 5
10 10 10 9 10 9 9 10 9 9 9 9 9 9 9 9 8 8 8 8 8 7 7 6 6 6 5 5 4 4 4 4 4 4 4 4 2 3 4 4 4 4 4
10 9 9 9 9 9 9 9 9 9 9 9 9 9 9 8 8 8 8 8 8 7 7 7 6 6 5 5 5 4 4 4 4 4 4 3 3 3 3 3 3 4 4
9 9 8 8 8 8 9 9 9 9 9 9 9 8 8 8 8 8 8 8 7 7 7 7 6 6 5 5 5 4 4 4 4 4 3 4 3 3 3 2 3 4 4
8 8 8 8 7 8 8 8 8 8 8 8 8 8 8 8 8 8 8 7 7 7 7 7 7 6 5 5 4 4 4 4 4 3 3 3 3 3 3 3 3 3 3
7 7 7 7 7 7 7 8 8 8 8 8 8 8 8 8 8 7 7 7 7 7 7 7 7 6 6 5 4 4 4 3 3 3 3 3 3 3 3 3 3 3 3
7 7 7 7 7 7 7 7 7 7 7 7 8 7 7 7 7 7 7 7 7 7 7 6 7 6 6 5 5 4 4 4 4 3 3 3 3 3 2 3 3 3 3
6 6 6 6 7 7 7 7 7 7 7 7 7 7 7 7 7 7 7 7 7 7 6 6 6 6 6 5 5 4 4 3 4 4 3 3 3 3 2 4 3 3 3
5 6 6 6 6 6 6 6 6 6 6 6 6 6 6 6 6 6 6 6 7 6 6 6 6 6 6 5 4 4 3 3 3 4 3 3 3 3 2 4 3 3 3
5 5 5 6 6 6 6 6 6 6 6 6 6 6 6 6 6 7 6 6 6 6 6 6 6 6 6 5 4 4 3 3 3 3 3 4 3 3 3 2 2 2 2
4 4 5 4 5 5 6 6 6 6 6 6 6 6 6 6 6 6 6 6 6 6 6 6 6 6 5 5 4 3 2 3 3 3 3 2 2 2 2 2 2 2 2
4 5 4 4 4 4 4 5 5 6 6 6 6 6 6 6 6 6 5 5 5 6 6 6 5 5 5 5 4 4 3 3 3 3 2 2 1 2 3 2 2 2 2
3 4 4 5 4 4 4 4 4 4 5 6 6 6 6 6 6 6 5 5 5 5 5 5 5 5 5 5 4 2 2 2 2 2 2 2 1 2 2 2 2 2 2
4 4 4 5 5 4 4 4 4 4 4 5 5 6 6 6 5 6 5 4 5 5 5 5 5 5 5 4 4 3 2 2 2 2 1 1 1 1 2 2 2 2 2
4 4 4 4 4 3 3 3 4 4 4 5 5 5 6 5 5 5 5 5 4 5 5 5 4 4 4 4 4 4 2 2 2 2 1 2 1 1 1 1 1 1 2
3 3 4 3 3 3 3 3 3 4 4 4 5 5 5 5 5 5 5 4 3 3 4 5 4 4 4 4 4 4 2 2 2 1 2 2 2 2 2 1 2 1 1
1 1 2 2 2 1 3 3 3 4 4 4 5 5 5 5 5 5 4 4 4 4 4 3 4 4 3 3 4 3 1 2 2 2 2 2 2 2 1 1 1 2 2

GFSSE_700_temp_105.txt.gz
Temp
13 14 13 12 12 12 12 12 12 11 11 11 10 10 9 9 9 8 9 9 8 8 8 7 8 8 8 7 7 7 7 7 7 7 7 7 7 7 7 7 7 7 7
13 14 13 12 12 12 12 12 12 11 11 11 11 10 10 9 9 8 8 8 8 8 7 7 7 7 7 7 7 7 7 7 7 6 7 7 7 7 7 7 7 6 6
13 13 13 12 12 12 12 12 11 11 11 11 10 10 10 9 9 9 8 8 8 8 7 7 7 7 7 7 7 7 7 7 6 6 6 6 6 6 7 6 6 6 6
13 13 13 12 12 12 12 12 11 11 11 10 10 10 9 9 8 8 8 8 8 8 7 7 7 7 7 7 7 7 7 6 6 6 6 6 6 6 6 6 6 6 6
12 12 12 12 11 11 11 11 11 11 11 10 10 10 10 9 9 8 8 7 7 7 7 7 7 6 7 7 7 6 6 6 6 6 6 6 6 6 6 5 6 5 6
12 12 12 12 11 11 11 11 11 11 10 10 10 10 9 9 9 8 8 7 7 7 7 7 7 6 6 6 6 6 6 6 6 5 6 5 5 6 5 5 5 5 5
11 11 12 12 11 11 11 11 11 10 10 10 10 10 9 9 9 9 8 8 7 7 7 7 7 6 6 6 6 6 6 6 6 5 5 6 6 5 5 5 5 5 5
11 11 11 11 11 11 11 10 10 10 10 10 10 10 9 9 8 8 8 8 7 7 7 7 7 6 6 6 6 6 6 6 5 5 5 4 5 5 5 5 5 5 5
11 11 11 11 11 11 11 10 10 10 10 10 10 9 9 9 9 8 8 8 7 7 7 7 7 6 6 6 6 5 5 5 5 4 5 5 5 4 4 5 4 5 5
10 10 10 11 11 11 11 10 10 10 10 10 9 9 9 9 9 8 8 8 8 7 7 6 7 6 6 6 5 5 5 5 5 4 4 4 4 4 3 4 4 4 5
10 10 10 10 10 10 10 10 10 10 10 10 9 9 9 9 9 9 8 8 8 8 7 6 6 6 6 6 5 5 5 5 5 5 5 4 4 4 3 3 4 4 4
8 10 10 10 10 10 10 10 9 10 10 9 9 9 9 9 8 8 8 8 8 8 8 7 7 6 6 6 6 5 5 5 5 5 4 4 4 4 3 3 4 4 4
7 8 9 9 10 9 9 9 9 9 9 9 9 9 9 9 8 8 8 8 8 8 7 8 7 7 6 6 6 5 5 4 5 4 4 4 4 3 3 3 4 4 4
6 6 7 8 9 9 8 8 8 8 9 9 9 9 9 8 8 8 8 8 8 8 7 7 7 7 6 6 6 5 5 5 4 4 4 4 4 3 3 3 3 3 3
6 6 7 7 8 8 7 8 8 8 8 8 8 8 8 8 8 8 8 7 8 7 8 7 7 7 6 6 5 5 5 5 4 5 4 4 3 3 2 3 3 3 3
6 7 7 6 7 7 7 7 7 8 8 8 8 8 8 8 8 7 7 7 7 7 7 7 6 6 6 6 5 5 5 5 5 4 4 4 3 3 2 3 3 3 3
6 6 7 7 6 6 7 7 7 7 7 7 8 8 8 7 7 7 7 7 7 6 7 7 7 6 6 6 6 5 5 5 5 4 4 4 4 3 3 2 3 3 3
5 6 6 6 6 6 6 6 7 7 7 7 7 7 7 7 7 7 7 7 7 6 6 6 6 6 6 6 6 5 5 5 5 4 4 4 3 3 3 2 2 2 3
5 5 5 6 6 6 7 6 7 6 6 6 6 7 7 7 7 7 6 7 6 6 6 6 6 6 6 6 5 5 5 5 5 4 4 4 3 3 3 3 3 1 3
4 5 5 5 6 6 7 7 7 7 7 6 6 6 6 7 6 6 6 6 7 6 6 6 6 6 6 6 6 6 5 4 5 4 4 4 3 3 3 3 3 2 2
4 4 5 5 5 5 6 6 6 7 6 7 6 6 6 6 6 6 6 6 7 6 6 5 6 6 6 6 5 5 5 5 4 4 4 4 3 3 2 3 2 2 1
3 4 4 5 5 5 5 6 6 6 6 5 5 6 6 6 6 6 6 6 6 6 5 5 6 6 6 5 5 5 5 5 5 4 4 3 3 2 2 2 2 2 1
3 4 4 4 5 5 5 5 5 5 4 4 4 5 5 6 5 4 5 4 6 6 5 4 5 6 5 5 5 5 5 5 5 4 4 3 3 2 2 1 2 1 2
3 4 4 5 5 4 4 5 5 5 4 4 3 2 5 5 5 5 5 5 6 6 5 4 5 5 5 5 5 5 4 4 4 4 3 2 2 2 2 1 1 2 2
3 3 3 4 4 4 4 4 4 4 3 3 3 2 4 5 5 5 5 5 5 5 5 4 3 4 5 5 5 4 4 4 4 3 3 2 2 2 2 1 1 1 1
2 2 2 3 3 3 3 2 2 3 3 3 3 3 3 4 5 5 5 5 5 5 4 5 3 2 3 4 5 5 4 4 4 3 3 3 2 2 2 2 1 1 1

GFSSE_700_temp_108.txt.gz
Temp
14 13 13 13 13 13 12 12 12 12 12 11 11 11 10 9 9 8 8 8 8 8 8 7 7 7 7 7 7 7 7 7 7 7 7 7 7 7 7 7 7 7 7
13 14 13 13 12 12 12 12 12 12 11 11 11 11 10 10 9 8 8 8 8 8 8 7 7 7 7 7 7 7 7 7 7 7 7 7 7 7 7 7 7 7 6
13 14 13 13 12 12 12 12 11 11 11 11 11 10 10 10 9 9 8 7 8 8 7 7 7 7 7 7 7 7 7 7 7 6 6 6 6 6 7 7 7 6 6
13 13 13 13 12 12 12 12 11 11 11 11 10 10 10 10 9 9 8 8 8 8 7 7 7 7 7 7 7 7 7 7 6 6 6 7 6 6 6 6 6 6 6
12 13 13 13 12 12 12 11 11 11 11 10 10 10 10 10 9 9 9 8 8 7 7 7 7 7 7 7 7 7 7 6 6 6 6 6 5 5 6 6 6 6 6
12 12 13 13 12 12 11 11 11 11 11 10 10 10 10 9 9 9 8 8 8 8 7 7 7 7 6 6 6 6 6 6 6 6 6 5 5 4 6 6 6 6 5
11 11 12 12 12 11 11 11 11 11 10 10 10 10 10 9 9 9 8 8 8 8 7 7 7 7 6 6 6 6 6 6 6 6 6 5 5 4 6 6 6 6 5
11 11 12 12 12 11 11 11 11 10 10 10 10 10 10 9 9 9 8 8 8 8 7 7 7 7 6 6 6 6 6 6 6 6 6 5 5 4 5 6 6 6 5
11 11 11 11 11 11 11 11 10 10 10 10 10 10 9 9 9 9 9 8 8 8 8 7 7 7 6 6 6 6 6 6 6 6 6 5 5 4 5 5 6 5 5
11 10 11 11 11 11 11 11 10 10 10 10 10 9 9 9 9 9 9 9 8 8 8 7 7 7 7 6 6 6 6 6 6 6 5 5 5 5 4 5 5 5 5
9 11 10 10 10 10 11 11 10 10 10 10 10 10 9 9 9 9 9 8 8 8 8 8 8 7 7 7 6 6 6 6 6 5 5 5 5 4 4 4 4 4 4
7 9 10 10 10 10 10 10 10 10 9 10 10 9 9 9 9 9 9 8 8 8 8 8 8 7 7 7 7 6 6 6 5 5 5 5 4 4 4 4 4 3 3
6 6 9 10 10 9 9 10 10 9 9 9 9 9 9 9 9 9 9 8 8 8 8 8 8 8 7 7 6 6 6 5 5 5 5 5 4 4 4 4 4 3 3
6 6 6 9 9 9 9 9 9 9 8 9 9 9 9 9 9 9 8 8 8 8 8 8 8 7 7 7 6 6 6 5 5 5 5 5 4 4 4 4 4 3 3
5 5 5 6 7 9 8 8 8 8 8 8 8 8 9 9 8 8 8 8 8 8 8 8 8 7 7 7 7 6 6 6 5 5 5 5 5 4 4 4 3 3 2
5 5 5 6 7 7 8 7 8 8 8 8 8 8 9 8 8 8 8 8 8 8 8 7 7 7 7 7 7 7 6 5 5 5 4 5 5 4 4 3 3 3 3
4 5 5 7 5 6 7 7 7 7 7 7 8 8 8 8 8 8 8 8 8 8 7 7 7 7 7 7 7 6 6 5 5 5 4 4 5 4 4 3 3 3 2
3 4 6 6 6 6 6 6 6 6 6 7 7 8 8 8 7 7 7 7 7 7 7 7 7 7 7 7 7 6 6 5 5 5 5 4 4 4 4 4 3 3 2
4 5 5 5 5 6 6 6 6 6 6 6 7 7 7 8 8 7 7 7 7 7 6 7 7 7 6 6 6 6 6 5 5 5 5 4 4 4 4 4 4 3 3
4 4 5 5 5 6 6 6 6 6 6 6 6 6 6 7 8 7 7 7 7 7 6 6 6 6 6 6 6 6 6 5 5 5 5 4 4 4 4 4 4 3 3
4 4 4 4 5 5 6 6 6 6 6 6 6 6 6 6 6 7 6 6 6 7 6 7 6 6 6 6 6 5 6 6 5 5 4 4 4 3 4 3 3 3 3
3 3 4 4 4 4 5 5 6 6 7 7 6 7 7 6 6 6 6 6 5 6 6 6 6 6 6 6 5 5 5 5 6 5 5 5 4 3 3 3 4 3 2
3 3 3 4 4 4 5 5 6 6 6 6 6 6 5 5 5 6 5 6 6 4 2 3 5 6 5 5 5 5 5 5 5 5 5 5 4 2 3 3 3 2 2
2 3 3 4 4 5 5 5 5 6 6 5 5 5 4 4 3 5 5 4 6 4 3 3 2 5 5 5 5 5 5 5 5 5 5 5 4 3 3 3 2 1 1
2 3 3 3 3 4 5 5 5 5 6 6 5 5 5 4 2 3 5 4 4 4 4 4 4 3 4 5 4 4 4 4 4 5 5 5 4 3 3 2 2 1 1
2 2 2 3 3 3 3 4 4 5 5 5 4 4 4 3 2 2 3 4 4 5 5 5 4 3 4 5 5 4 4 4 4 4 4 4 4 3 2 2 2 1 0

GFSSE_700_temp_111.txt.gz
Temp
13 14 14 13 12 13 12 12 12 11 11 11 11 11 10 10 9 9 9 8 8 7 7 7 7 7 7 7 7 7 7 7 7 6 6 6 6 6 7 6 6 6 6
14 13 14 13 12 12 12 12 12 11 11 11 11 11 10 10 9 9 9 9 8 8 7 7 7 7 7 7 7 6 6 6 6 6 6 6 6 6 6 6 7 6 6
13 13 13 13 13 12 12 12 12 11 11 11 11 10 10 10 10 9 9 9 9 8 8 7 7 7 7 7 7 6 6 6 6 5 5 6 6 6 6 6 6 6 6
13 13 13 13 12 12 12 12 11 11 11 11 10 10 10 10 10 9 9 9 8 8 8 8 7 7 7 7 7 6 6 6 6 5 6 6 6 6 6 6 6 6 6
12 13 13 13 12 12 12 12 11 11 11 11 11 10 10 10 10 10 9 9 8 8 8 8 7 7 7 7 7 6 6 6 5 5 6 6 5 6 5 5 6 6 5
12 12 12 13 12 12 11 11 11 11 11 10 10 10 10 10 10 9 9 9 8 8 8 8 8 8 7 7 7 6 6 6 5 5 5 5 6 5 5 5 5 5 5
11 12 12 12 12 12 11 11 11 11 10 10 10 10 10 9 9 9 9 9 9 8 8 8 7 7 7 7 7 6 6 6 5 5 5 5 5 5 5 5 5 5 5
11 11 11 12 12 12 11 11 11 11 10 10 10 10 10 9 9 9 9 9 9 8 8 8 7 7 7 7 7 6 6 6 5 5 5 5 5 5 5 5 5 5 5
11 11 11 11 11 11 11 11 11 10 10 10 10 10 10 9 9 9 9 9 9 8 8 8 8 7 7 7 7 7 6 5 5 5 5 5 5 4 4 4 5 5 5
11 11 10 11 11 11 11 11 10 10 10 10 10 9 9 9 9 9 9 9 9 9 8 8 8 8 7 7 7 7 6 6 5 5 5 5 5 4 3 4 4 5 5
9 10 10 10 11 10 11 10 10 10 10 10 10 10 9 9 9 9 9 9 9 9 8 8 8 8 8 8 7 7 7 6 6 5 5 5 5 4 4 3 4 5 5
8 8 9 10 10 10 10 10 10 10 9 9 9 9 9 9 9 9 9 9 8 8 8 8 8 8 8 8 7 7 7 6 6 5 5 5 5 4 4 4 4 4 4
7 7 8 9 10 10 10 10 10 10 9 9 9 9 9 9 9 9 9 9 8 8 8 8 8 8 8 8 8 7 7 7 6 5 5 5 4 4 4 4 4 4 4
6 6 6 8 9 9 9 10 9 9 9 9 9 9 9 9 9 9 9 9 8 8 8 8 8 8 8 8 8 7 7 6 6 6 5 5 4 4 4 4 4 4 4
6 6 6 7 8 9 9 9 9 9 8 8 8 8 8 8 9 9 9 8 8 8 8 8 8 8 8 8 7 8 7 7 6 6 5 5 4 4 4 4 4 4 4
5 5 5 5 7 8 8 8 8 8 8 8 8 8 8 8 8 8 8 8 8 8 8 8 8 8 7 7 7 7 7 7 6 6 6 5 5 5 4 4 4 4 3
5 5 5 5 5 7 7 8 7 7 7 7 7 8 7 7 8 8 8 8 8 8 8 8 8 7 7 7 7 7 7 7 6 6 6 5 5 5 4 4 4 4 4
5 5 5 5 5 5 5 6 6 6 6 6 7 7 7 7 7 8 8 8 8 8 8 8 8 7 7 7 7 7 7 6 6 6 5 5 5 5 4 4 5 4 4
4 5 5 5 6 5 5 5 6 6 6 6 6 6 6 6 7 7 7 7 7 7 7 7 7 7 7 7 7 7 6 6 6 6 6 5 5 5 4 4 4 4 4
4 4 4 5 5 5 5 5 5 5 6 6 6 6 6 6 6 6 6 7 7 7 7 7 7 7 7 7 6 6 6 6 6 6 6 6 5 5 4 4 4 4 4
4 4 3 4 4 4 5 5 5 5 5 5 6 6 6 7 6 6 7 6 5 6 6 6 6 6 6 6 5 6 6 6 6 6 6 6 6 5 4 4 4 4 4
3 3 3 3 3 3 4 5 6 6 6 6 6 6 6 6 5 6 7 7 6 6 5 5 5 5 5 5 5 5 5 6 6 6 5 5 5 5 4 4 3 4 3
3 3 3 3 3 3 4 4 5 5 6 7 7 7 7 6 6 6 5 5 5 6 5 5 5 4 3 2 3 4 4 5 5 5 5 5 5 5 4 4 4 3 3
3 2 2 2 3 3 3 4 4 5 5 6 6 7 7 7 7 6 5 4 4 5 4 4 4 4 3 3 2 2 4 4 5 5 5 5 5 5 4 4 4 3 3
2 2 2 2 3 3 4 4 4 5 5 6 6 6 6 6 6 5 5 4 4 4 3 3 3 3 3 4 3 2 3 4 4 5 5 5 4 4 4 3 3 2 2
2 1 1 2 2 3 3 3 4 5 5 6 6 6 6 6 6 5 4 3 3 3 3 3 3 3 3 3 3 4 4 4 4 5 5 5 4 4 4 3 3 2 2

GFSSE_700_temp_114.txt.gz
Temp
13 13 13 13 12 12 12 12 12 11 11 11 11 11 11 11 11 10 10 10 9 9 8 7 7 7 7 7 7 7 6 6 6 6 6 6 7 6 6 6 6 6 6
13 13 13 13 12 12 12 12 11 11 11 11 11 10 10 10 10 10 10 9 9 9 8 8 7 7 7 7 6 6 6 6 6 6 6 6 6 6 6 6 6 6 6
13 12 13 13 13 12 12 12 11 11 11 11 10 10 10 10 10 10 10 9 9 9 8 8 7 7 7 6 6 6 6 6 6 6 6 6 6 6 6 6 6 6 6
13 12 12 13 12 12 12 12 11 11 11 11 10 10 10 10 10 10 9 9 9 9 8 8 7 7 6 6 6 6 6 5 5 6 6 5 6 6 6 6 6 6 6
13 12 12 12 12 12 12 11 11 11 11 11 10 10 10 10 10 10 9 9 9 9 8 8 7 7 6 6 6 6 5 5 5 6 6 6 6 6 6 6 6 5 6
12 12 12 12 12 12 11 11 11 11 11 11 10 10 10 10 10 9 9 9 9 9 8 8 7 7 7 6 6 6 6 5 5 6 6 6 5 5 6 5 5 5 5
12 12 12 12 12 12 11 11 11 11 11 10 10 10 10 9 9 9 9 9 9 9 8 8 7 7 7 6 6 6 6 5 6 6 6 5 5 5 6 5 5 5 5
11 11 11 12 11 11 11 11 11 11 11 10 10 10 10 10 9 9 9 9 9 9 9 8 7 7 7 7 6 6 6 5 6 6 6 5 5 5 5 6 5 5 5
11 11 11 11 11 11 11 11 11 11 10 10 10 10 10 9 9 9 9 9 9 9 9 8 8 8 7 7 7 6 6 5 5 6 6 5 5 5 6 5 6 5 5
10 11 10 10 11 11 11 11 10 10 10 10 10 10 10 9 9 9 9 9 9 9 9 8 8 8 8 7 7 6 6 5 5 5 6 6 6 5 5 5 5 5 5
9 9 9 10 10 10 11 10 10 10 10 10 9 10 9 9 9 9 9 9 9 9 9 9 8 8 8 8 7 7 6 5 5 5 5 6 6 5 5 5 5 5 4
9 8 8 9 9 10 10 10 10 10 10 10 9 9 9 9 9 9 9 9 9 9 9 9 8 8 8 8 7 7 6 6 5 4 5 5 5 5 5 4 4 4 4
8 8 8 7 9 9 10 10 10 10 9 9 9 9 9 9 9 9 9 9 9 9 8 8 8 8 8 8 8 7 7 6 6 5 5 5 5 5 5 4 4 4 4
7 7 7 8 7 9 9 9 9 9 9 9 9 9 8 8 9 9 9 9 9 9 8 8 8 8 8 8 8 8 7 7 6 5 5 5 4 5 5 5 4 4 4
7 7 6 7 7 7 9 9 9 9 9 9 8 8 8 8 8 8 8 8 8 8 8 8 8 8 8 8 7 7 7 7 7 6 6 5 5 4 5 4 4 4 4
7 6 6 6 7 7 6 7 8 7 8 8 8 8 8 8 8 8 8 8 8 8 8 8 8 8 8 8 7 7 7 7 7 6 6 5 5 5 5 4 4 4 4
6 6 5 5 5 6 6 6 6 6 7 7 8 7 7 7 7 8 8 8 8 8 7 8 8 8 8 8 8 7 7 7 7 6 6 6 5 5 5 4 4 4 4
6 6 5 5 5 5 5 6 6 6 6 6 7 7 7 8 7 7 7 7 6 7 7 7 7 7 7 7 7 7 7 7 7 6 6 6 6 5 5 4 4 4 4
6 5 5 5 5 5 5 5 5 5 5 5 6 6 6 6 6 7 6 6 5 4 7 7 7 7 7 7 7 7 7 7 7 7 6 6 6 6 5 5 4 4 4
5 5 5 5 5 5 4 4 4 5 5 5 5 5 5 6 6 6 7 6 6 5 6 6 7 7 7 6 6 6 6 6 6 7 7 6 6 6 6 5 4 4 4
5 5 5 4 4 4 5 4 4 4 4 4 4 5 5 6 6 6 6 6 7 6 6 6 5 6 6 6 6 5 6 6 6 6 6 6 6 6 6 5 5 5 4
5 4 4 4 4 4 4 4 5 4 4 4 4 4 5 5 6 6 6 6 6 6 6 6 5 5 5 5 3 3 4 5 6 6 6 6 6 6 6 5 5 5 4
4 3 3 4 4 4 4 4 4 4 5 5 5 5 5 5 6 6 6 6 7 6 7 6 5 5 5 4 4 3 2 2 4 5 5 5 5 5 5 5 5 5 5
1 2 2 3 3 3 3 3 3 3 4 4 5 5 6 6 6 6 6 6 7 7 7 6 5 5 4 4 4 3 2 1 2 3 4 5 5 5 5 5 5 5 5
1 2 2 3 3 3 3 3 3 3 4 4 5 5 6 6 6 6 6 6 6 6 6 6 6 5 4 4 4 2 2 1 3 2 3 4 4 5 5 5 5 5 5
2 2 2 2 3 2 2 2 3 3 3 4 4 5 6 6 6 6 6 6 6 5 5 5 5 4 4 3 3 3 2 3 4 4 3 4 4 4 4 4 4 5 5

GFSSE_700_temp_117.txt.gz
Temp
14 13 13 13 13 12 12 12 12 11 11 11 11 11 11 11 11 10 10 9 9 9 8 8 7 7 7 7 6 6 6 6 6 7 7 7 6 6 7 7 7 6 6
13 13 12 12 12 12 12 11 11 11 11 10 10 11 10 10 10 10 10 10 9 9 8 8 7 7 7 7 6 6 6 6 6 7 7 6 6 6 7 7 6 6 6
12 12 12 12 12 12 12 11 11 11 11 11 10 10 10 10 10 10 10 9 9 8 8 8 7 7 7 6 6 6 6 6 6 7 6 6 6 6 7 6 6 6 6
12 12 12 12 12 12 11 11 11 11 11 11 10 10 10 10 10 10 9 9 9 9 8 8 7 7 7 6 6 6 6 6 7 6 6 6 6 6 6 6 6 5 5
12 12 12 12 12 12 12 11 11 11 11 11 10 10 10 10 10 10 9 9 9 8 8 8 8 7 7 6 6 6 6 6 7 7 6 6 6 5 5 5 5 5 5
12 11 11 12 12 12 11 11 11 11 11 11 10 10 10 10 10 10 9 9 9 9 8 8 7 7 7 6 6 6 6 6 6 6 6 6 5 5 5 5 5 5 5
12 11 11 11 11 11 11 11 11 11 10 10 10 10 10 10 10 10 9 9 9 9 8 8 7 7 7 7 6 6 6 6 6 6 6 6 6 5 5 5 5 5 5
11 11 11 10 11 10 10 10 11 10 10 10 10 10 10 10 10 9 9 9 9 9 9 8 8 7 7 7 7 6 6 6 6 6 6 6 6 6 6 6 5 5 4
10 10 10 10 10 11 10 10 10 10 10 10 10 10 10 10 10 9 9 9 9 9 9 8 8 8 8 7 7 6 6 6 6 6 6 6 6 6 6 6 5 5 4
9 10 10 10 10 10 10 10 10 10 10 10 10 10 10 10 9 9 9 9 9 9 9 8 8 8 8 8 7 7 6 6 6 6 6 5 5 5 5 6 5 5 4
9 9 9 9 9 9 9 10 10 10 9 10 10 10 9 9 9 9 9 9 9 9 9 8 8 8 8 8 7 7 7 6 6 6 6 5 5 5 5 5 5 5 4
9 9 9 9 9 9 9 9 9 9 9 9 9 9 9 9 9 9 9 9 9 8 9 8 8 8 8 8 8 7 7 6 6 6 6 6 6 5 5 5 5 5 5
9 9 9 9 9 9 9 9 9 9 9 9 9 8 8 9 9 9 9 9 9 8 8 8 8 8 8 8 7 7 7 7 6 6 6 6 6 6 5 4 4 4 4
7 7 8 8 9 9 9 9 9 9 9 8 8 8 8 8 8 8 9 8 8 8 8 8 8 8 8 8 7 7 7 7 7 6 6 6 6 6 5 5 4 4 4
7 7 7 8 7 8 8 8 8 8 8 8 8 7 7 7 8 8 8 8 8 8 8 8 8 8 8 8 8 7 7 7 7 7 7 6 6 6 5 5 4 4 4
6 7 6 7 8 8 8 8 8 7 7 8 7 7 7 7 7 7 7 7 7 7 7 7 7 7 7 7 7 7 7 7 7 7 7 7 6 6 6 5 5 4 4
6 6 6 6 6 6 7 7 7 7 6 6 7 7 7 6 6 7 6 7 7 7 7 6 7 7 7 7 7 7 7 7 7 7 7 7 6 6 6 6 5 4 4
5 5 6 6 6 6 6 6 6 6 6 6 5 6 6 6 7 7 7 7 7 7 6 6 5 6 7 7 7 7 7 7 7 7 7 7 6 6 6 6 5 5 4
5 6 5 6 6 5 5 5 5 5 5 5 5 5 5 5 5 6 6 7 6 6 6 5 4 5 6 6 6 6 6 7 7 7 7 7 7 6 6 6 6 5 5
4 5 5 5 5 5 5 5 5 4 4 4 5 5 5 5 5 5 5 5 6 6 5 5 4 4 4 4 4 5 5 5 6 6 6 6 6 6 6 6 6 6 5
3 4 4 5 5 5 5 5 4 4 4 4 4 5 5 5 5 5 5 5 5 5 5 5 5 5 4 4 3 3 3 4 4 4 5 5 5 6 6 6 6 6 6
2 3 3 4 4 4 4 4 4 4 4 4 4 4 5 5 5 5 5 5 5 5 6 6 5 5 5 5 5 4 4 3 2 2 2 2 4 5 5 5 5 6 6
0 1 2 3 3 4 4 4 4 4 4 4 4 4 4 4 5 5 5 5 6 6 6 6 6 5 5 5 5 4 4 4 4 3 3 3 2 4 5 5 5 5 6
-1 1 1 2 3 3 3 4 4 3 3 3 4 4 4 4 4 5 5 6 6 6 6 6 5 5 5 5 5 4 4 4 3 3 4 3 1 3 4 5 5 5 5
0 -1 0 2 2 3 3 3 3 3 3 3 3 4 4 4 4 5 5 6 6 6 6 6 6 6 5 5 4 4 4 4 3 3 3 3 3 3 4 5 4 4 5
-1 -2 -1 1 2 2 3 2 3 2 3 3 3 4 4 4 4 4 5 5 6 6 6 6 6 6 6 5 4 3 3 3 4 3 3 3 3 4 4 3 4 4 4

GFSSE_700_temp_120.txt.gz
Temp
13 13 12 12 12 12 12 12 11 11 11 11 11 11 11 10 10 10 10 10 9 9 8 8 7 7 7 6 6 6 6 6 7 7 7 6 6 7 7 7 6 6 6
12 12 12 12 12 12 12 11 11 11 11 11 11 11 11 10 10 10 10 10 9 9 8 8 7 7 7 7 7 7 7 7 7 6 6 6 6 6 6 6 6 6 6
12 11 11 11 11 11 12 11 11 11 11 11 11 11 10 10 10 10 10 9 9 9 9 8 8 8 7 7 7 7 7 7 7 7 6 6 6 6 6 6 6 6 6
11 11 11 11 11 11 11 11 11 11 11 11 10 10 10 10 10 10 10 9 9 9 9 8 8 8 7 7 7 7 7 7 7 7 6 6 6 6 6 6 6 5 5
12 11 11 11 11 11 11 11 11 11 11 10 10 10 10 10 10 10 10 9 9 9 9 8 8 8 7 7 7 7 7 7 7 7 6 6 6 6 6 6 5 5 5
11 11 11 11 11 11 10 10 10 11 10 10 10 10 10 10 10 10 10 9 9 9 9 8 8 8 8 7 7 7 7 7 7 6 6 6 6 6 6 6 5 5 5
11 10 10 10 10 10 10 10 10 10 10 10 10 10 10 10 10 9 9 9 9 9 9 8 8 8 8 7 7 7 7 7 7 6 6 6 6 5 5 5 5 5 5
10 10 10 10 10 10 10 10 9 10 10 10 10 10 10 10 10 10 9 9 9 9 9 9 8 8 8 7 7 7 7 7 7 6 6 6 6 5 5 5 5 4 5
9 9 9 9 9 9 9 9 9 9 9 10 9 9 9 9 9 9 9 9 9 9 9 9 8 8 8 7 7 7 7 7 7 6 6 6 6 6 5 5 5 5 5
8 8 9 9 9 9 9 9 9 9 9 9 9 9 9 9 9 9 9 9 9 9 9 9 8 8 8 8 7 7 7 7 7 6 6 6 6 6 5 5 5 5 4
8 8 9 9 9 9 9 9 9 9 9 9 9 9 8 8 8 8 9 9 9 9 9 9 8 8 8 8 8 7 7 7 7 7 6 6 6 6 5 5 5 5 5
8 8 8 9 9 9 9 9 9 9 9 9 8 8 8 8 8 8 8 8 8 8 8 8 8 8 8 8 8 7 7 7 7 7 6 6 6 6 6 5 5 5 5
7 7 8 8 8 9 9 9 9 9 9 9 9 8 8 8 8 8 8 8 8 8 8 8 8 8 8 8 8 7 7 7 7 7 7 7 6 6 6 5 5 5 5
7 7 7 7 7 7 8 8 8 8 8 8 9 8 8 7 7 7 7 7 7 7 8 8 8 8 8 8 7 7 7 7 7 7 7 7 6 6 6 5 5 5 5
7 7 6 6 6 6 7 7 8 8 7 7 8 8 8 7 7 7 7 7 6 6 7 7 7 7 7 7 7 7 7 7 7 7 7 7 7 7 6 6 5 5 5
7 7 7 6 6 6 6 6 7 7 7 7 8 8 8 7 7 7 7 7 7 6 6 6 6 7 7 7 7 7 7 7 7 6 7 7 7 6 6 6 6 5 5
6 6 6 6 6 6 6 6 6 7 6 6 6 6 6 6 6 6 7 7 7 6 6 6 6 6 6 6 6 6 7 6 7 7 7 6 6 6 6 6 6 5 5
6 6 6 5 5 5 5 5 6 5 5 5 5 5 5 5 6 6 6 6 6 6 6 6 6 5 5 6 5 5 6 6 6 6 6 6 6 6 6 6 6 5 5
5 5 5 5 5 5 5 5 5 5 5 5 5 5 5 4 5 5 5 5 6 6 6 6 5 5 5 5 4 4 4 5 5 5 6 6 6 6 5 5 5 5 5
4 4 4 3 4 4 5 5 5 5 4 4 4 4 5 5 5 5 5 5 5 5 5 5 4 4 4 4 4 3 3 4 4 4 4 4 4 5 5 5 5 5 5
4 3 3 3 2 3 4 4 5 5 5 4 4 4 4 4 5 5 5 5 5 5 5 5 5 4 4 4 4 3 2 4 3 4 3 2 4 4 3 2 3 5 5
2 2 1 1 2 2 3 3 4 3 4 4 4 4 4 4 4 4 4 5 5 5 5 5 5 5 5 5 4 4 3 4 3 3 3 3 3 1 2 4 4 4 5
0 0 -0 0 1 1 2 2 3 3 4 4 4 4 4 3 3 4 4 4 5 5 5 5 5 5 5 5 5 4 4 4 4 4 4 4 3 3 3 3 3 4 4
-1 -0 -0 -0 0 -1 1 2 3 3 3 4 4 4 3 3 3 4 4 4 4 5 5 5 5 5 5 5 5 5 4 4 4 4 4 4 3 3 4 3 3 4 5
-1 -1 -1 -1 -0 -3 -0 1 2 3 3 3 3 3 3 3 3 3 4 4 4 5 5 5 5 5 6 5 5 5 5 4 4 3 3 3 3 3 4 4 3 4 4
-2 -1 -1 -1 -2 -1 -3 -1 1 2 3 3 3 3 3 3 4 4 4 4 4 5 5 5 5 5 5 5 5 5 5 5 5 4 3 3 3 3 3 3 4 3 4

GFSSE_700_temp_123.txt.gz
Temp
13 13 13 12 12 12 12 11 11 11 11 11 11 11 11 11 10 10 10 10 10 9 9 8 8 7 7 7 7 7 7 7 7 7 7 7 7 7 7 7 6 6 6
12 12 12 12 12 12 11 11 11 11 11 10 11 11 11 10 10 10 10 10 10 9 9 9 8 8 7 7 7 7 7 7 7 7 7 7 6 6 6 7 6 6 6
12 11 11 11 11 11 11 11 11 11 11 10 10 11 10 10 10 10 10 10 9 9 9 9 8 8 7 7 7 7 7 7 7 7 7 6 6 6 6 6 6 6 6
11 11 11 10 11 11 11 11 11 11 10 10 10 10 10 10 10 10 10 10 9 9 9 9 8 8 8 7 7 7 7 7 7 7 6 6 6 6 6 6 6 6 6
11 11 11 11 11 10 10 10 10 10 10 10 10 10 10 10 10 10 10 10 9 9 9 9 8 8 8 7 7 7 7 7 7 6 6 6 6 6 6 6 6 6 6
11 11 11 10 10 10 10 10 10 10 10 10 10 10 10 10 10 10 10 10 10 9 9 9 9 8 8 7 7 7 7 7 7 6 6 6 6 6 6 6 5 5 5
10 10 10 10 10 10 10 10 9 9 9 9 9 9 10 10 10 9 9 9 9 9 9 9 9 8 8 8 8 7 7 7 7 6 6 6 6 6 6 5 5 5 5
10 9 9 9 9 9 9 9 9 9 9 9 9 9 9 9 9 9 9 9 9 9 9 9 9 8 8 8 8 7 7 7 7 6 6 6 6 6 6 6 5 5 5
9 9 9 9 9 9 9 9 9 9 9 8 8 8 8 8 8 9 9 9 9 9 9 9 8 8 8 8 8 7 7 7 7 6 6 6 6 6 5 5 5 5 5
9 8 8 8 8 9 9 9 9 9 9 9 8 8 8 8 8 8 9 9 9 9 9 8 8 8 8 8 8 8 7 7 7 6 6 6 6 5 5 5 5 5 5
9 8 8 8 8 8 8 8 8 8 9 9 9 8 8 8 8 8 8 8 8 9 9 8 8 8 8 8 8 7 7 7 7 7 6 6 6 6 5 5 5 5 4
8 8 8 8 7 7 8 8 8 8 8 8 8 8 8 7 8 8 8 8 8 8 8 8 8 8 8 8 8 8 7 7 7 7 7 7 6 6 5 5 5 5 5
8 8 8 8 8 8 8 7 7 7 7 7 7 7 8 8 7 7 7 7 7 8 8 8 8 8 8 7 7 7 7 7 7 7 7 6 6 6 6 5 5 5 5
7 7 7 7 7 7 8 8 8 7 7 7 7 7 7 7 7 7 7 7 7 7 7 7 7 8 7 7 7 7 7 7 7 7 7 7 6 6 6 5 5 5 5
8 8 8 7 7 7 6 6 7 7 6 7 6 6 6 7 7 7 7 6 6 6 6 7 7 7 7 7 7 7 7 7 7 7 7 6 6 6 6 6 5 5 5
8 8 7 7 7 7 6 6 6 6 6 6 6 6 6 6 6 6 6 6 6 6 6 6 6 6 7 7 7 6 6 7 7 7 7 6 6 6 6 6 5 5 4
7 7 7 6 5 6 6 6 5 5 5 6 5 5 5 6 6 5 5 6 6 6 6 6 6 6 7 7 7 7 6 6 6 6 6 6 6 6 6 6 6 6 5
7 6 6 5 5 5 5 5 6 5 4 5 5 5 5 5 5 5 5 5 5 5 5 5 5 6 6 6 6 6 6 6 6 6 6 6 6 6 6 6 6 5 5
7 7 6 5 5 5 5 5 5 5 4 4 5 5 4 4 4 4 4 5 5 5 4 5 5 5 5 5 5 5 5 5 5 4 6 5 4 5 5 5 5 5 5
6 6 6 4 3 3 4 4 4 4 4 4 4 4 4 4 4 4 5 4 5 5 4 4 4 5 4 4 4 4 4 4 4 4 3 3 4 4 5 5 5 5 5
4 4 4 4 2 2 2 3 3 4 4 4 4 4 4 4 4 4 4 5 4 5 5 4 4 4 4 4 4 3 2 2 2 3 3 2 4 4 5 5 5 6 5
3 3 2 2 1 0 1 2 2 3 3 3 3 3 3 4 4 4 4 4 4 4 4 4 4 4 4 3 4 4 4 3 3 5 6 5 4 3 4 5 4 4 4
0 0 0 -1 -1 -0 1 1 1 1 2 2 2 3 3 4 4 4 4 4 4 4 4 5 4 4 5 4 4 4 4 5 5 5 5 5 4 4 4 4 4 5 4
-2 -3 -3 -2 -2 -1 -0 0 -0 0 1 2 2 3 3 3 3 3 3 3 4 4 4 4 5 5 5 5 4 4 4 4 4 5 6 5 4 5 5 3 4 4 4
-3 -3 -2 -2 -1 -1 -1 -1 -1 -1 -1 1 2 2 3 2 3 3 3 3 3 4 4 4 4 5 5 5 5 5 5 5 5 4 4 5 5 5 4 3 4 4 4
-3 -3 -3 -2 -2 -2 -1 -1 -1 -1 -2 -1 0 1 1 2 2 3 3 3 3 3 4 4 4 4 5 5 5 5 5 5 5 5 5 4 5 4 5 4 4 3 3

GFSSE_700_temp_126.txt.gz
Temp
13 12 12 12 12 12 12 11 11 11 11 10 10 10 10 10 10 10 10 10 10 9 9 9 8 8 8 8 7 7 7 7 7 7 7 7 7 7 7 7 7 7 6
12 12 12 12 11 11 11 11 11 11 11 10 10 10 10 10 10 10 10 10 10 10 9 9 9 8 8 8 7 7 7 7 7 7 7 7 7 6 6 7 7 6 6
11 11 11 11 11 11 11 11 11 11 10 10 10 10 10 10 10 10 10 10 10 9 9 9 9 8 8 8 7 7 7 7 7 7 7 7 7 6 6 6 6 6 6
11 11 11 10 10 10 10 10 10 10 10 10 10 10 10 10 10 10 10 10 9 9 9 9 8 8 8 8 7 7 7 7 7 6 7 6 6 6 6 6 6 6 6
11 11 11 11 10 10 10 10 10 10 10 10 10 10 10 10 9 9 9 10 9 9 9 9 8 8 8 8 8 7 7 7 7 6 6 6 6 6 6 6 6 6 6
10 10 10 10 10 10 10 9 9 9 9 9 9 9 9 9 9 9 9 9 9 9 9 8 8 8 8 8 8 7 7 7 6 6 6 6 6 6 6 6 6 6 6
10 10 10 10 9 9 9 9 9 9 8 9 9 9 9 9 9 9 9 9 9 9 9 8 8 8 8 8 8 7 7 7 6 6 6 6 6 6 6 6 6 6 6
9 9 9 9 9 9 9 9 9 9 8 8 8 8 9 9 9 9 9 9 9 9 9 8 8 8 8 8 8 8 7 7 7 6 6 6 6 6 6 5 5 5 5
9 8 9 9 9 9 8 8 8 8 9 8 8 8 8 8 8 8 8 9 8 8 8 8 8 8 8 8 8 8 7 7 7 7 6 6 6 6 6 6 6 5 5
9 9 9 9 9 8 8 8 8 8 8 8 8 8 8 7 7 8 8 8 9 8 8 8 8 8 8 8 8 8 8 7 7 7 7 6 6 6 6 5 5 6 5
9 9 9 9 9 9 8 8 8 8 8 8 8 8 8 8 7 7 7 8 8 8 8 8 8 8 8 8 8 8 8 7 7 7 7 7 6 6 6 6 5 5 5
9 9 9 9 9 9 9 8 8 8 8 7 7 7 7 7 7 7 7 7 7 7 8 8 8 8 8 8 8 8 8 7 7 7 7 7 6 6 6 5 5 5 5
9 8 9 8 8 8 8 8 8 8 8 8 8 7 7 7 7 6 6 6 7 7 7 7 7 7 7 7 7 7 7 7 7 7 7 7 7 6 6 5 5 5 5
8 8 8 8 8 8 8 7 8 8 7 7 7 7 7 7 7 6 6 6 6 6 7 7 7 7 7 7 7 7 7 7 7 7 7 7 7 7 6 6 5 5 5
8 8 7 7 7 7 7 7 7 7 7 7 7 6 6 6 6 6 7 6 6 6 6 6 6 6 6 6 6 6 7 7 7 7 7 7 7 7 7 6 6 5 5
8 8 8 8 8 7 7 6 6 6 6 6 6 6 5 5 6 6 6 6 6 6 6 6 6 6 6 6 6 6 6 6 6 6 6 7 6 7 7 7 6 6 5
8 8 8 8 7 6 6 6 5 6 6 6 6 6 5 5 5 5 5 5 5 5 5 5 5 5 5 6 6 6 6 6 6 6 6 6 6 6 7 6 6 6 5
6 7 7 7 7 6 5 5 5 5 5 5 5 5 5 4 4 4 4 4 5 5 5 5 5 5 5 5 6 6 6 6 6 6 6 6 6 6 6 7 6 6 6
6 6 6 6 5 5 5 5 5 5 5 5 5 5 4 4 4 4 4 4 4 4 5 5 5 5 5 5 5 5 5 6 5 5 5 5 5 6 6 6 6 6 6
5 5 5 5 5 4 4 4 4 5 4 4 4 4 4 4 4 4 4 4 4 4 5 5 5 5 4 5 5 5 5 5 5 4 3 4 4 5 5 5 5 5 6
4 4 4 4 3 3 3 3 3 3 3 3 3 4 3 3 3 4 4 4 4 4 4 4 5 5 5 5 4 4 4 3 3 4 3 2 3 4 4 4 5 5 5
3 3 3 3 3 2 -0 0 1 1 2 2 2 3 3 3 3 3 4 4 4 4 4 4 4 4 4 4 4 4 4 5 5 4 5 4 5 4 5 4 4 5 5
2 2 2 2 1 -1 -2 -1 0 0 0 1 1 1 2 2 3 3 4 4 3 3 3 3 3 4 4 4 4 3 4 4 5 5 5 4 5 5 5 6 5 4 5
0 0 -1 -1 -2 -2 -2 -2 -1 -1 -1 0 0 0 1 2 2 3 3 3 3 3 3 3 3 3 3 4 4 3 3 3 4 4 5 5 5 5 5 6 5 4 4
-1 -2 -2 -3 -3 -2 -2 -2 -1 -2 -1 -1 -0 0 1 1 1 2 2 2 2 2 3 3 3 3 3 3 3 4 3 3 4 3 4 4 5 5 5 5 5 5 5
-2 -2 -3 -3 -3 -3 -2 -2 -2 -2 -2 -2 -2 -1 -1 -0 1 1 1 2 2 2 2 3 3 3 2 3 3 3 3 3 3 3 3 3 4 5 5 5 5 5 5

GFSSE_700_temp_129.txt.gz
Temp
13 12 12 12 12 12 12 12 12 11 11 11 10 10 10 10 10 10 10 10 9 9 9 8 8 8 8 7 7 7 7 7 7 7 7 7 7 7 7 7 7 7 7
12 12 12 12 11 11 11 11 11 11 11 11 11 10 10 10 10 10 10 9 9 9 9 8 8 8 7 7 7 8 8 7 7 7 7 7 7 7 7 7 7 7 6
12 11 11 11 11 11 11 11 11 11 11 10 10 10 10 10 9 9 9 9 9 9 9 9 8 8 8 7 7 7 7 7 7 7 7 7 6 6 7 7 7 7 6
11 11 11 11 10 10 10 10 10 10 10 10 10 10 10 10 9 9 9 9 9 9 9 8 8 8 8 7 7 7 7 7 7 6 6 5 7 6 6 6 6 6 6
11 11 11 11 10 10 10 10 10 9 10 10 9 9 9 9 9 9 9 9 9 9 9 8 8 8 8 7 7 7 7 7 6 6 6 6 6 6 6 6 6 6 6
10 10 10 10 10 10 10 10 9 9 8 9 9 9 9 9 9 9 9 9 9 9 9 8 8 8 8 8 7 7 7 7 6 6 4 6 7 6 6 6 6 6 6
10 10 10 10 10 10 10 9 9 9 8 8 8 8 8 8 9 9 9 9 9 9 9 8 8 8 8 8 8 8 7 7 6 5 4 6 7 6 6 6 6 6 6
10 10 10 10 9 9 9 9 9 9 9 8 8 8 8 8 8 8 8 8 8 8 8 8 8 8 8 8 8 8 7 7 7 6 4 4 6 6 6 6 6 5 5
9 9 9 9 9 9 9 9 8 8 8 8 8 8 8 7 7 7 7 8 8 8 8 8 8 8 8 8 8 8 8 7 7 6 3 4 6 6 6 5 5 5 5
9 9 9 9 9 9 9 9 8 8 8 8 8 8 8 7 7 7 7 7 7 7 8 8 8 8 8 8 8 8 8 7 7 7 4 4 7 6 6 6 6 6 5
9 8 8 8 9 9 9 9 9 9 8 8 8 8 7 7 7 7 7 7 7 7 7 7 7 7 7 8 8 8 8 7 7 7 6 7 7 6 6 6 6 6 5
9 8 8 8 9 9 8 8 8 8 8 8 8 8 8 8 8 8 7 7 6 7 7 7 7 7 7 8 8 8 8 7 7 7 6 7 7 7 6 6 6 6 6
8 8 9 9 9 9 8 8 8 8 8 8 8 8 7 7 7 7 7 7 7 6 6 6 7 7 7 7 7 8 8 7 7 7 6 7 7 7 7 7 6 6 6
8 8 8 8 8 8 8 8 7 5 4 5 5 7 7 6 7 6 6 6 7 7 6 6 6 6 6 7 7 6 6 7 7 7 5 7 7 7 7 7 7 6 6
8 8 8 8 8 8 8 7 7 7 6 6 6 6 6 6 6 6 6 6 6 6 6 6 6 6 6 6 6 6 6 7 7 6 4 7 7 7 7 7 6 6 6
8 8 8 8 8 8 7 7 7 6 6 7 7 7 6 6 6 6 6 6 6 6 6 6 6 5 5 6 6 6 6 6 6 6 6 6 7 7 7 7 7 6 6
8 8 8 8 8 7 7 6 6 6 6 6 6 6 6 5 5 5 5 5 5 6 6 5 5 5 5 5 5 6 6 6 6 6 6 6 5 7 7 7 7 7 7
6 6 7 7 7 7 7 6 5 5 5 5 5 5 5 5 5 5 5 5 4 5 5 5 5 5 5 5 6 5 6 5 5 5 5 5 5 6 7 7 7 7 7
5 5 5 6 6 6 6 6 5 4 4 5 5 5 5 4 4 4 4 4 4 4 4 5 5 5 5 5 5 4 5 5 5 5 5 5 5 5 5 6 6 6 6
5 5 5 5 5 5 5 5 5 4 4 4 4 4 4 4 4 4 4 4 4 4 4 4 4 5 5 5 5 5 5 5 5 5 5 4 4 4 4 3 4 5 6
4 5 5 4 5 4 4 4 3 3 3 2 2 3 4 3 3 3 4 4 4 4 4 4 4 4 4 4 4 4 5 5 5 5 4 3 4 3 3 2 2 4 4
4 4 4 4 3 3 3 3 2 2 2 1 2 2 2 2 2 3 3 3 3 4 4 4 4 4 4 4 4 3 3 4 4 5 5 5 5 5 5 5 5 3 3
3 3 3 3 2 2 1 0 -0 -1 0 1 1 1 1 1 1 1 2 3 3 3 3 3 3 3 3 3 3 3 3 3 3 4 5 5 5 5 4 5 4 5 4
3 3 2 2 1 0 0 -0 -1 -2 -1 -1 -0 -0 -0 -0 0 1 1 2 3 3 3 3 3 3 3 3 3 2 2 2 2 2 2 4 5 5 5 5 5 5 4
1 1 1 1 1 1 0 -0 -1 -1 -2 -2 -1 -1 -1 -1 -1 0 1 1 2 2 2 2 2 3 3 3 3 3 2 2 2 2 2 3 2 4 4 4 5 5 5
0 -0 -1 -1 -1 -0 -0 -1 -1 -2 -2 -3 -2 -2 -1 -1 -2 -1 -0 1 1 1 2 2 2 2 3 3 3 3 3 2 2 2 2 3 3 3 2 4 4 4 5